Voltar ao catálogo

STARLINK-35546

AtivoComunicaçõesVLEO
NORAD 66240·PAYLOAD·🇺🇸 United States

Lançado Oct 29, 2025 de Cape Canaveral Space Force Station

Loading…

Próximas Passagens (próximas 24 horas)

TLE

AtualizadoSource: CelesTrak SupGP

Época: Sep 14, 2026, 14:32 UTC

1 66240C 25245G   26257.60604167  .00037846  00000+0  11182-2 0  2577
2 66240  53.1581 124.9698 0001333  88.7862 162.8757 15.34369894    10

Acompanhe STARLINK-35546 em tempo real com AllMySat

Download on the App Store